Weather in Zangilan

Azerbaijan     39˚05′02″N   46˚39′40″E
temp.,
°C
wind,
m/s
gust,
m/s
humid.,
%
clouds,
%
prec.,
mm/h
press.,
hPa
HPBL,
m
2 december, wed
wed201:00+4˚sw11770 0.0 102623
04:00+4˚ssw11680 0.0 102523
07:00+3˚ssw01700 0.0 102722
10:00+5˚nnw11620 0.0 1027129
13:00+9˚nne21530 0.0 1025354
16:00+9˚n32580 0.0 1024404
19:00+4˚nnw118639 0.0 102623
22:00+3˚nw119161 0.0 102625
3 december, thu
thu301:00+3˚wsw009198 0.0 102746
04:00+3˚nnw008969 0.0 102848
07:00+3˚nnw008845 0.0 102842
10:00+5˚n118144 0.0 1029254
13:00+6˚n227180 0.0 1027577
16:00+7˚nne327280 0.0 1026602
19:00+5˚n2281100 0.0 1028291
22:00+5˚n1187100 0.0 1028156
4 december, fri
fri401:00+4˚n119097 0.0 1028108
04:00+3˚nnw009391 0.0 102851
07:00+4˚n009197 0.0 102874
10:00+4˚nnw119199 0.0 1028172
13:00+6˚nne128294 0.0 1026331
16:00+7˚nne227289 0.0 1025616
19:00+6˚n238598 0.0 1026299
22:00+5˚n128999 0.0 1026234
5 december, sat
sat501:00+4˚nnw1191100 0.0 102679
04:00+4˚nnw119197 0.0 102592
07:00+4˚n1191100 0.0 1025159
10:00+4˚nnw1189100 0.0 1025196
13:00+6˚nne117597 0.0 1023421
16:00+7˚nne336979 0.0 1022733
19:00+6˚nne237697 0.0 1024444
22:00+5˚n117998 0.1 1024205
6 december, sun
sun601:00+4˚nnw118679 0.0 102486
04:00+2˚nnw119476 0.0 102443
07:00+3˚nnw119490 0.0 102472
10:00+3˚n129395 0.0 1025175
13:00+4˚n2289100 0.0 1023238
16:00+5˚nne238198 0.0 1023402
19:00+3˚n239194 0.0 1024233
22:00+2˚n129497 0.1 1025173